Flag for U.S.A. Weather past 2 weeks in Albany, New York, U.S.A.

68 °F

Passing clouds.

Feels Like: 68 °F
Forecast: 50 / 67 °F
Wind: 7 mph from West

Location: Albany County Airport

Current Time: Oct 7, 2015 at 4:00:30 PM

Latest Report: Oct 7, 2015 at 2:51 PM

Visibility: 10 mi

Pressure: 29.97 "Hg

Humidity: 53%

Dew point: 50 °F

Location of AlbanyLocation

Historic Weather in Albany — Graph


Albany temperature yesterday

Maximum temperature yesterday: 71 °F (at 3:51 PM)
Minimum temperature yesterday: 48 °F (at 6:51 AM)
Average temperature yesterday: 58 °F

Past Weeks' High & Low Weather Summary

High77 °F (Sep 24, 1:51 PM)97% (Sep 23, 3:03 AM)30.53 "Hg (Sep 23, 3:03 AM)
Low39 °F (Oct 5, 4:51 AM)21% (Sep 27, 1:51 PM)29.75 "Hg (Sep 30, 7:51 AM)
Average58 °F67%30.24 "Hg
* Reported Sep 22 2:51 PM — Oct 7 2:51 PM, Albany, Weather by CustomWeather, © 2015

Note: Actual official high and low records may vary slightly from our data, if they occured in-between our weather recording intervals... More about our weather records


Albany weather history for previous 24 hours

Time TempWeatherWind HumidityBarometerVisibility
2:51 PM
Wed, Oct 7
68 °FPassing clouds.7 mph53%29.97 "Hg10 mi
1:51 PM66 °FScattered clouds.10 mph54%29.99 "Hg10 mi
12:51 PM64 °FPartly sunny.13 mph58%30.02 "Hg10 mi
11:51 AM60 °FMostly cloudy.13 mph65%30.03 "Hg10 mi
11:02 AM60 °FMostly cloudy.13 mph65%30.03 "Hg10 mi
10:51 AM61 °FOvercast.12 mph62%30.02 "Hg10 mi
9:51 AM59 °FBroken clouds.10 mph72%30.02 "Hg10 mi
8:51 AM59 °FBroken clouds.7 mph75%30.01 "Hg10 mi
7:51 AM56 °FPartly cloudy.No wind81%30.00 "Hg10 mi
6:51 AM52 °FPassing clouds.3 mph83%29.99 "Hg10 mi
5:51 AM55 °FPartly cloudy.3 mph72%29.98 "Hg10 mi
4:51 AM57 °FOvercast.10 mph72%29.97 "Hg10 mi
3:51 AM56 °FOvercast.8 mph75%29.98 "Hg10 mi
2:51 AM54 °FPartly cloudy.3 mph80%29.99 "Hg10 mi
1:51 AM57 °FMostly cloudy.5 mph74%29.99 "Hg10 mi
12:51 AM56 °FPassing clouds.No wind77%29.99 "Hg10 mi
11:51 PM
Tue, Oct 6
55 °FPassing clouds.No wind77%30.00 "Hg10 mi
10:51 PM57 °FPassing clouds.8 mph74%29.99 "Hg10 mi
9:51 PM59 °FPassing clouds.12 mph69%29.99 "Hg10 mi
8:51 PM58 °FPassing clouds.7 mph70%29.98 "Hg10 mi
7:51 PM60 °FPassing clouds.3 mph65%29.97 "Hg10 mi
6:51 PM62 °FBroken clouds.5 mph62%29.97 "Hg10 mi
5:51 PM66 °FBroken clouds.6 mph54%29.96 "Hg10 mi
4:51 PM68 °FBroken clouds.6 mph51%29.95 "Hg10 mi
Weather by CustomWeather, © 2015

See weather overviewHow to use our weather pages